This demonstration page uses our WeatherBlox Daily Observations layout. Learn more.

Left ArrowRight Arrow

39.51506, -84.39828

Hourly Observations for August 20, 2021

Temp ( °F °C ) Dew Point ( °F °C ) Humidity (%) Winds ( mph kmh ) Pressure ( in mb ) Visibility ( mi km ) Precip ( " mm )
12:15 am 00:15 Hazy 68 20 N/A N/A N N/A 30.02 1017 7 11 N/A
12:35 am 00:35 Mostly Cloudy with Mist and Fog 68 20 N/A N/A N N/A 30.02 1017 3 4 N/A
12:55 am 00:55 Hazy 68 20 N/A N/A N N/A 30.02 1017 5 8 N/A
1:15 am 01:15 Hazy 68 20 N/A N/A NE 5 7 30.03 1017 5 8 N/A
1:35 am 01:35 Cloudy with Haze 68 20 N/A N/A N N/A 30.03 1017 5 8 N/A
1:55 am 01:55 Cloudy with Haze 68 20 N/A N/A NNE 3 6 30.03 1017 5 8 N/A
2:15 am 02:15 Cloudy with Fog 68 20 N/A N/A NNW 3 6 30.02 1017 1 1 N/A
2:35 am 02:35 Mostly Cloudy with Fog 68 20 N/A N/A N N/A 30.03 1017 0 0 N/A
2:55 am 02:55 Hazy 66 19 N/A N/A N N/A 30.04 1017 4 6 N/A
3:15 am 03:15 Clear with Mist and Fog 66 19 N/A N/A N N/A 30.03 1017 4 6 N/A
3:35 am 03:35 Partly Cloudy with Mist and Fog 66 19 N/A N/A NNW 3 6 30.02 1016 3 5 N/A
3:55 am 03:55 Cloudy with Mist and Fog 66 19 N/A N/A N N/A 30.02 1016 1 2 N/A
4:15 am 04:15 Cloudy with Haze 66 19 N/A N/A NNW 3 6 30.02 1016 4 6 N/A
4:35 am 04:35 Cloudy with Fog 66 19 N/A N/A NNW 3 6 30.01 1016 1 1 N/A
4:55 am 04:55 Cloudy with Fog 66 19 N/A N/A N 3 6 30.01 1016 0 0 N/A
5:15 am 05:15 Cloudy with Fog 66 19 N/A N/A N 3 6 30.01 1016 0 0 N/A
5:35 am 05:35 Cloudy with Fog 66 19 N/A N/A N 3 6 30.01 1016 1 1 N/A
5:55 am 05:55 Cloudy with Fog 66 19 N/A N/A N N/A 30.01 1016 0 0 N/A
6:15 am 06:15 Cloudy with Mist and Fog 64 18 N/A N/A N 3 6 30.01 1016 2 3 N/A
6:35 am 06:35 Mostly Cloudy with Mist and Fog 64 18 N/A N/A N 3 6 30.01 1016 3 5 N/A
6:55 am 06:55 Cloudy with Fog 66 19 N/A N/A N N/A 30.02 1016 N/A N/A
7:15 am 07:15 Cloudy with Fog 66 19 N/A N/A N N/A 30.02 1016 0 0 N/A
7:35 am 07:35 Cloudy with Fog 66 19 N/A N/A N N/A 30.02 1016 N/A N/A
7:55 am 07:55 Cloudy with Fog 66 19 N/A N/A N N/A 30.03 1017 N/A N/A
8:15 am 08:15 Cloudy with Fog 66 19 N/A N/A N N/A 30.03 1017 N/A N/A
8:35 am 08:35 Cloudy with Fog 66 19 N/A N/A N N/A 30.02 1016 N/A N/A
8:55 am 08:55 Cloudy with Fog 68 20 N/A N/A N N/A 30.02 1017 N/A N/A
9:15 am 09:15 Cloudy with Fog 70 21 N/A N/A N N/A 30.02 1017 0 0 N/A
9:35 am 09:35 Cloudy with Mist and Fog 70 21 N/A N/A E 3 6 30.02 1017 2 2 N/A
9:55 am 09:55 Hazy 72 22 N/A N/A N N/A 30.01 1016 4 6 N/A
10:15 am 10:15 Hazy 73 23 N/A N/A ENE 3 6 30.02 1017 7 11 N/A
10:35 am 10:35 Sunny 75 23.9 73 22.7 93 93 E 3 6 30.02 1016 10 16 N/A
10:55 am 10:55 Sunny 78 25.7 72 22.3 82 82 NNE 3 6 30.01 1016 10 16 N/A
11:15 am 11:15 Sunny 81 27.1 72 22.4 76 76 E 3 6 30.01 1016 10 16 N/A
11:35 am 11:35 Sunny 82 27.5 71 21.9 72 72 N N/A 30.01 1016 10 16 N/A
11:55 am 11:55 Mostly Cloudy 83 28.2 70 21.2 66 66 SSE 5 7 30.00 1016 10 16 N/A
12:15 pm 12:15 Partly Cloudy 85 29.2 69 20.6 60 60 SE 7 11 29.99 1016 10 16 N/A
12:35 pm 12:35 Sunny 82 28 69 20.6 64 64 N N/A 30.00 1016 10 16 N/A
12:55 pm 12:55 Partly Cloudy 84 28.9 68 20.1 59 59 SSW 5 7 29.98 1015 10 16 N/A
1:15 pm 13:15 Sunny 86 29.9 69 20.5 57 57 S 3 6 29.98 1015 10 16 N/A
1:35 pm 13:35 Partly Cloudy 86 29.8 69 20.4 57 57 N 3 6 29.97 1015 10 16 N/A
1:55 pm 13:55 Mostly Cloudy 84 29.1 68 19.9 58 58 NNE 3 6 29.96 1015 10 16 N/A
2:15 pm 14:15 Partly Cloudy 86 30.1 69 20.6 57 57 S 8 13 29.96 1015 10 16 N/A
2:35 pm 14:35 Partly Cloudy 86 30 68 20 55 55 S 5 7 29.95 1014 10 16 N/A
2:55 pm 14:55 Mostly Cloudy 85 29.7 67 19.7 55 55 WNW 5 7 29.95 1014 10 16 N/A
3:15 pm 15:15 Partly Cloudy 86 29.8 68 19.8 55 55 ESE 5 7 29.94 1014 10 16 N/A
3:35 pm 15:35 Cloudy 84 28.8 69 20.8 62 62 ENE 9 15 29.93 1014 10 16 N/A
3:55 pm 15:55 Mostly Cloudy 82 27.9 71 21.4 68 68 ENE 7 11 29.94 1014 10 16 N/A
4:15 pm 16:15 Sunny 85 29.7 68 19.9 56 56 SE 6 9 29.92 1013 10 16 N/A
4:35 pm 16:35 Sunny 86 30.1 68 19.9 54 54 N N/A 29.91 1013 10 16 N/A
4:55 pm 16:55 Partly Cloudy 87 30.3 68 19.8 53 53 N N/A 29.90 1013 10 16 N/A
5:15 pm 17:15 Mostly Cloudy 87 30.5 67 19.6 52 52 NE 6 9 29.90 1013 10 16 N/A
5:35 pm 17:35 Mostly Cloudy 86 30.1 70 21.1 59 59 ESE 8 13 29.89 1012 10 16 N/A
5:55 pm 17:55 Mostly Cloudy 84 29 69 20.5 60 60 S 8 13 29.90 1013 10 16 N/A
6:15 pm 18:15 Cloudy 80 26.6 67 19.5 65 65 S 6 9 29.91 1013 10 16 N/A
6:35 pm 18:35 Sunny 79 26.1 69 20.4 71 71 NNW 3 6 29.90 1013 10 16 N/A
6:55 pm 18:55 Sunny 79 26.3 69 20.8 72 72 N 3 6 29.91 1013 10 16 N/A
7:15 pm 19:15 Sunny 80 26.8 69 20.5 68 68 N N/A 29.90 1012 10 16 N/A
7:35 pm 19:35 Sunny 79 26.2 72 22 78 78 ENE 3 6 29.90 1013 10 16 N/A
7:55 pm 19:55 Sunny 80 26.4 72 22.4 79 79 ENE 3 6 29.90 1013 10 16 N/A
8:15 pm 20:15 Sunny 77 25 74 23.4 91 91 NE 3 6 29.91 1013 10 16 N/A
8:35 pm 20:35 Clear 76 24.2 74 23.2 94 94 NE 3 6 29.91 1013 10 16 N/A
8:55 pm 20:55 Clear 74 23.6 73 22.9 96 96 N 5 7 29.93 1013 10 16 N/A
9:15 pm 21:15 Clear 74 23.2 73 22.8 98 98 N N/A 29.93 1013 10 16 N/A
9:35 pm 21:35 Partly Cloudy 74 23.4 73 22.6 95 95 N 6 9 29.93 1013 10 16 N/A
9:55 pm 21:55 Cloudy 75 23.9 72 22 89 89 N 3 6 29.93 1013 10 16 N/A
10:15 pm 22:15 Cloudy 75 23.8 72 22.2 91 91 N N/A 29.94 1014 10 16 N/A
10:35 pm 22:35 Cloudy 75 23.8 71 21.9 89 89 NE 3 6 29.94 1014 10 16 N/A
10:55 pm 22:55 Clear 74 23.2 72 22.3 95 95 E 5 7 29.94 1014 10 16 N/A
11:15 pm 23:15 Clear 72 22 72 22 100 100 N N/A 29.94 1014 10 16 N/A
11:35 pm 23:35 Clear 72 22 N/A N/A N 5 7 29.93 1014 10 16 N/A
11:55 pm 23:55 Clear 70 21 N/A N/A NW 3 6 29.93 1014 7 11 N/A

Powered by AerisWeather